Location: Unspecified
(0.0000°N, 0.0000°E)
Time: 08:27:23
(UTC+00:00)

N. Korean satellite - Pass Details

Date: 20 January 2017
Orbit: 459 x 517 km, 97.2° (Epoch: 20 October)

Event Time Altitude Azimuth Distance (km) Brightness Sun altitude
Rises 18:40:45 0° 164° (SSE) 2,478 10.2 -6.9°
Reaches altitude 10° 18:42:48 10° 161° (SSE) 1,603 9.2 -7.4°
Maximum altitude 18:46:11 63° 79° (E) 519 6.4 -8.2°
Drops below altitude 10° 18:49:36 10° 358° (N) 1,608 9.0 -9.0°
Sets 18:51:39 0° 354° (N) 2,487 10.0 -9.5°
